Terminal Aerodrome Forecast
Issued by NWS

Home | Current Version | Previous Version | Graphics & Text | Print | Product List | Glossary On
Versions: 1 2 3 4 5 6 7 8 9 10 11 12 13 14
000
FTUS42 KMHX 252114 AAA
TAFOAJ
TAF AMD
KOAJ 252114Z 2521/2618 15007KT P6SM -RA SCT020 OVC040
     FM252300 18005KT 5SM -RA SCT007 OVC020
     FM260430 VRB03KT 3SM BR VCSH OVC004
     FM261500 31006KT P6SM VCSH OVC007
     FM261700 33008KT P6SM VCSH OVC015
      AMD LTD TO CLD VIS AND WIND=

USA.gov is the U.S. government's official web portal to all federal, state and local government web resources and services.